Location: Newark
(45.4422°N, 16.2769°E)
Time: 12:51:21
(UTC+00:00)

Courier 1B - Pass Details

Date: 17 December 2019
Orbit: 962 x 1209 km, 28.3° (Epoch: 17 January)

Event Time Altitude Azimuth Distance (km) Brightness Sun altitude
Rises 21:16:09 0° 249° (WSW) 3,872 - -60.7°
Reaches altitude 10° 21:20:17 10° 226° (SW) 2,968 - -61.3°
Maximum altitude 21:24:00 15° 196° (SSW) 2,675 - -61.7°
Drops below altitude 10° 21:27:48 10° 165° (SSE) 3,053 - -62.2°
Sets 21:32:11 0° 143° (SE) 4,054 - -62.7°
